Temp
22 21 20 20 19 19 19 19 19 19 19 19 20 19 19 20 20 20 19 20 20 20 20 21 21 22 22 21 23 24 24 24 23 22 22 22 22 21 21 21 21 20 20
22 22 21 20 19 19 19 19 19 19 19 19 19 19 19 19 18 19 19 19 19 19 20 20 20 20 22 22 23 23 23 24 23 22 21 21 21 20 19 20 18 19 19
23 22 22 21 21 20 19 19 19 19 19 19 19 19 18 18 18 18 19 18 18 18 18 19 18 19 19 19 21 21 22 22 22 21 21 20 19 19 19 19 19 18 18
23 22 22 22 21 21 20 19 19 18 18 18 18 18 18 17 17 17 18 17 17 17 17 17 17 17 17 17 18 19 20 20 20 21 21 19 19 19 19 19 18 18 18
23 22 22 22 22 21 21 20 19 18 18 18 18 17 17 17 17 17 17 16 16 16 16 16 16 16 16 17 17 18 19 20 20 19 19 21 18 20 19 19 19 18 18
24 23 23 23 22 22 21 20 19 19 19 18 18 17 17 16 16 17 16 16 15 15 15 15 15 15 15 15 15 17 17 18 19 19 20 19 17 18 18 18 19 19 17
24 24 23 23 22 21 21 21 20 19 18 17 16 16 16 16 16 16 16 16 15 15 15 15 15 14 15 16 15 16 16 16 16 17 15 15 14 14 16 16 16 16 16
23 24 23 23 23 22 21 19 17 17 16 15 15 14 14 15 16 16 16 16 15 14 15 14 15 15 16 16 15 15 14 15 15 14 14 13 13 14 14 14 15 15 16
22 23 23 22 19 18 17 17 16 15 14 14 13 12 13 14 15 16 16 15 14 13 13 14 14 14 15 15 15 13 13 12 12 13 13 13 13 13 14 14 13 14 15
18 19 18 17 15 15 15 15 14 14 13 12 11 10 12 13 15 15 15 13 12 11 11 12 12 13 14 14 14 13 12 12 12 12 12 11 11 11 11 12 11 12 13
14 13 15 14 13 13 14 13 13 11 10 9 8 8 10 11 13 14 15 14 13 11 9 9 10 12 12 13 12 12 11 11 12 12 11 11 12 12 11 10 10 10 10
11 11 11 11 11 11 12 11 10 9 8 7 7 7 7 9 10 11 11 11 10 9 8 8 9 10 10 10 10 10 10 10 11 11 11 12 12 12 11 11 10 11 10
9 9 8 8 8 9 9 8 8 8 7 7 6 6 6 7 7 7 8 8 8 8 7 7 8 8 8 8 9 9 9 9 10 11 11 11 11 11 11 11 11 11 10
9 9 9 9 9 8 8 8 8 7 7 6 6 6 6 6 7 7 7 7 7 7 8 8 9 9 9 9 9 9 9 9 10 10 10 10 10 10 10 10 10 11 11
9 8 8 8 8 8 7 7 7 7 8 7 7 7 7 7 7 8 8 7 8 8 9 9 10 10 10 10 10 10 9 9 9 9 9 10 10 10 10 9 10 10 10
10 9 9 8 8 8 7 7 8 8 8 8 8 8 7 7 7 8 8 9 9 10 10 11 11 10 10 10 10 10 9 9 8 9 9 9 9 9 9 9 10 10 10
12 13 13 13 12 11 10 9 7 7 8 8 8 8 8 8 8 8 9 10 10 10 11 11 10 10 10 10 10 10 10 9 9 9 9 9 9 9 9 9 9 10 9
13 13 13 13 12 14 12 11 10 10 10 8 8 8 8 8 9 9 9 10 10 12 12 11 11 10 11 10 10 9 9 9 8 8 8 9 8 8 8 9 9 9 8
14 15 16 16 17 17 16 16 15 14 12 10 9 9 10 10 10 10 10 10 12 13 12 11 10 10 10 9 9 9 8 8 8 8 8 8 8 8 8 8 8 8 8
17 17 17 17 17 17 17 17 16 15 15 12 11 11 9 9 9 10 11 12 12 12 12 11 11 10 9 9 9 8 9 9 8 8 8 7 7 7 8 8 8 8 8
17 17 17 17 18 17 16 16 15 15 15 14 12 11 11 11 13 13 12 12 11 11 10 10 10 10 10 9 8 8 9 9 8 7 7 7 7 7 7 7 7 8 8
18 18 17 17 16 16 15 14 14 14 14 14 12 12 11 12 13 12 12 11 10 10 10 9 9 10 10 9 8 8 8 8 7 6 6 6 6 7 6 6 7 7 7
17 18 17 16 15 15 15 14 13 13 14 14 14 12 12 12 12 12 11 11 10 10 9 9 9 9 9 8 8 8 8 7 6 5 5 4 5 6 6 6 7 7 7
17 18 18 15 15 15 15 13 14 14 14 14 14 14 13 12 12 10 10 10 10 10 10 9 9 8 8 8 8 8 6 6 5 4 4 4 4 5 5 6 6 6 6
17 18 18 16 16 15 15 15 15 15 14 14 14 13 13 12 11 11 10 10 10 10 10 9 8 7 7 7 6 6 5 5 4 4 4 3 4 5 5 6 5 6 6
17 17 17 17 17 17 16 16 16 15 15 14 14 13 13 12 12 11 10 10 10 10 9 8 8 7 7 6 6 5 4 4 4 4 3 3 4 5 5 5 5 6 6
Height
776 778 779 779 779 778 776 775 776 775 774 772 773 775 776 778 782 786 788 794 799 803 806 809 812 812 810 813 808 808 811 812 814 817 818 819 821 824 825 824 827 829 830
775 778 779 779 780 780 780 780 779 779 780 779 778 779 781 783 785 787 791 797 801 804 806 808 811 811 808 809 810 811 812 812 813 816 819 821 822 823 825 825 828 828 830
775 777 779 779 780 781 781 781 781 781 781 781 782 784 785 786 789 792 795 798 801 803 806 808 810 811 811 811 812 812 812 814 814 816 819 819 821 824 826 827 829 830 831
774 777 777 779 780 780 781 782 782 783 784 785 785 786 789 791 793 795 796 798 801 803 806 809 811 813 814 815 816 814 816 814 814 817 817 819 823 824 827 828 830 831 833
773 775 777 778 779 781 782 783 783 785 786 788 789 791 793 794 796 797 799 802 804 806 809 811 813 814 814 816 816 817 816 815 814 819 820 819 823 821 826 828 830 831 833
771 772 775 778 780 782 784 785 786 787 788 790 793 795 797 799 800 802 803 804 806 808 810 812 813 815 816 818 819 820 820 817 818 817 818 820 825 826 827 827 829 830 834
770 772 774 777 780 783 785 787 788 790 792 794 796 798 800 801 803 805 806 807 809 811 812 814 816 818 819 819 819 822 823 821 817 815 819 823 825 827 828 829 830 832 833
769 771 773 776 780 783 787 790 791 794 796 798 800 802 802 804 805 808 809 811 813 813 815 816 818 820 820 821 822 824 824 822 822 823 825 827 830 831 832 832 832 833 834
768 771 774 777 780 784 790 792 795 797 800 802 804 805 806 807 808 809 811 812 815 817 818 820 821 822 823 824 824 826 828 829 830 830 831 833 834 833 834 835 836 833 833
768 772 772 777 783 788 791 794 798 800 804 806 809 810 809 809 812 812 814 817 820 822 822 823 825 825 826 827 828 829 830 832 834 835 834 836 836 836 835 836 839 838 834
770 772 774 782 788 791 793 796 800 803 806 811 813 815 813 814 815 815 816 818 823 825 826 826 828 829 829 829 832 831 833 835 834 837 835 835 837 838 839 839 840 839 836
775 777 781 785 790 794 796 801 805 808 810 816 817 817 818 820 819 820 822 823 826 827 829 830 830 831 833 833 833 835 835 834 836 837 837 836 837 839 840 839 839 838 837
782 785 788 791 796 799 801 806 809 813 815 818 822 824 824 824 826 827 828 828 829 829 833 832 834 834 834 836 837 838 838 837 836 835 835 837 838 839 840 839 838 837 835
791 794 796 800 803 807 809 813 816 820 822 822 825 827 829 830 830 832 831 833 834 835 834 836 837 838 838 839 840 840 839 839 838 839 838 837 838 839 840 839 837 836 836
798 801 803 806 809 813 815 820 824 826 827 827 829 831 832 832 833 834 835 836 837 837 837 838 839 840 839 840 840 840 840 840 840 841 840 840 840 840 839 838 837 836 835
804 807 810 813 817 820 823 826 830 831 832 834 834 834 835 835 836 837 837 838 838 838 839 840 841 842 842 843 842 842 842 843 843 842 842 841 841 840 839 837 836 835 835
809 812 815 817 821 824 828 831 834 838 838 838 838 838 838 838 839 839 839 839 839 839 841 842 843 844 844 843 843 844 843 843 843 843 842 842 841 839 839 837 836 835 834
814 816 817 819 820 822 827 830 833 836 839 840 840 840 840 841 841 842 842 841 840 840 841 843 844 845 844 844 844 844 845 844 843 843 842 841 841 840 839 837 836 835 835
813 815 815 816 818 820 824 826 829 832 835 838 840 842 842 842 842 842 842 841 841 841 842 842 844 845 846 846 846 846 845 845 845 844 843 842 842 841 839 838 837 835 835
814 815 816 819 820 821 823 825 827 829 830 834 839 841 842 843 843 842 842 843 842 843 843 843 843 844 846 846 846 846 844 844 843 843 843 843 842 841 839 838 837 835 833
816 818 819 818 819 822 825 827 829 831 832 834 838 840 840 840 839 841 842 843 844 844 844 844 844 843 844 844 845 846 844 843 843 844 844 843 842 841 839 838 836 834 832
815 815 817 819 822 824 826 829 831 833 833 834 837 839 840 840 840 841 843 843 844 844 844 845 844 844 843 843 845 845 844 843 842 844 845 844 842 840 839 838 836 834 833
816 816 817 820 823 824 827 829 831 831 831 833 835 837 838 839 841 842 843 843 844 845 845 845 844 843 843 843 844 844 843 842 842 843 844 843 842 840 839 837 835 833 832
816 815 816 818 821 823 825 828 829 830 830 831 833 835 837 839 840 841 843 843 844 844 843 844 844 843 843 843 843 842 841 842 843 842 842 841 841 840 839 836 835 833 833
815 814 815 816 818 820 822 824 825 827 829 831 833 834 836 838 840 840 841 842 843 842 842 843 842 844 844 844 842 841 842 842 841 840 840 839 839 838 837 836 835 834 831
816 814 816 816 815 816 818 820 822 825 827 829 830 832 834 836 837 838 839 841 841 841 841 842 843 843 843 843 842 841 841 840 840 839 838 838 838 837 837 836 834 832 830
Wind_Speed
4 4 6 8 9 10 12 14 13 11 10 11 7 8 8 11 14 16 16 16 17 16 14 12 10 13 15 9 8 2 4 6 1 3 5 7 6 7 9 12 13 14 14
4 4 6 4 5 6 8 10 9 9 10 10 11 9 10 12 12 12 12 13 13 11 9 7 7 5 7 8 8 6 4 1 3 9 8 9 8 10 12 8 10 10 12
6 3 2 6 4 2 3 3 6 8 8 9 11 12 13 11 13 15 18 18 16 14 13 11 13 12 12 15 10 12 4 2 2 9 8 9 12 14 12 15 12 9 8
7 4 2 3 4 3 4 4 4 7 7 10 12 14 14 13 13 13 13 11 9 7 5 4 6 11 11 6 12 15 11 11 9 0 11 15 12 9 10 11 10 9 9
7 8 6 5 3 5 6 7 7 8 8 10 12 13 12 13 13 13 12 12 10 8 5 2 1 2 5 3 5 10 15 14 8 7 11 10 11 11 9 7 9 13 10
5 9 12 6 9 8 8 8 8 9 10 11 11 10 9 9 9 7 8 9 9 9 7 6 4 2 4 3 6 6 10 8 9 12 9 8 12 10 5 8 6 5 3
10 7 14 10 10 9 8 8 8 12 16 16 18 17 10 8 8 6 5 8 8 8 8 9 8 10 9 11 8 7 12 18 17 17 20 14 14 12 9 7 7 6 6
7 10 16 13 8 8 8 10 18 21 21 21 20 16 14 11 8 7 8 11 14 14 14 13 13 9 9 12 7 12 16 18 17 16 16 15 11 7 8 5 4 3 5
7 10 16 10 12 15 14 16 20 23 23 23 20 18 17 16 13 15 16 16 14 15 14 12 12 14 13 12 12 17 20 20 19 18 16 13 11 10 8 6 9 8 5
6 11 21 20 21 24 25 25 25 24 23 22 20 18 17 18 14 15 12 15 17 16 19 20 18 15 14 12 16 17 18 16 13 13 13 11 11 12 11 11 7 9 7
21 23 25 22 23 24 26 26 25 24 23 21 21 20 21 19 14 16 18 18 15 15 15 19 19 16 13 12 11 12 11 7 8 6 5 3 4 4 6 8 5 6 11
25 26 25 24 22 20 22 21 21 20 21 22 25 26 24 22 22 20 17 15 14 18 18 18 16 12 12 12 12 10 7 6 3 6 8 2 9 8 12 12 7 7 5
30 30 30 30 26 24 25 25 26 24 25 23 20 20 21 20 20 18 15 14 13 16 15 16 14 14 14 12 9 8 5 4 8 12 12 11 9 8 10 10 5 11 11
30 29 29 29 29 27 26 23 22 19 18 19 19 16 16 16 16 15 17 16 16 16 15 13 12 11 10 9 8 8 10 11 9 10 11 10 8 7 8 8 8 9 10
26 26 26 26 28 26 25 21 22 20 19 20 15 12 13 12 11 10 7 5 6 6 4 4 6 5 6 5 8 8 10 9 9 7 5 6 8 8 8 7 10 9 10
23 23 26 27 26 25 27 27 21 20 19 17 14 12 13 12 11 9 10 10 9 7 9 9 8 9 10 9 9 8 9 7 5 8 9 8 7 8 8 10 11 6 8
21 20 19 20 20 21 20 19 19 19 18 16 14 11 10 12 13 14 12 8 5 5 8 8 7 6 4 3 3 5 7 4 3 5 7 7 9 10 11 12 9 9 8
21 21 18 17 17 20 19 19 19 16 11 9 11 11 11 12 10 7 4 2 2 5 8 8 7 6 5 5 7 9 8 8 9 8 8 7 8 9 11 10 10 7 7
20 15 13 12 12 13 14 13 13 14 14 13 11 11 13 13 11 6 5 5 8 7 7 6 5 5 7 8 8 6 5 2 2 3 7 8 9 9 9 9 10 7 4
12 15 14 10 9 9 9 9 8 7 9 18 13 10 6 4 6 7 4 6 8 8 7 7 5 6 2 3 3 5 6 4 2 7 9 9 9 9 9 10 10 10 10
8 7 2 5 9 8 6 7 10 10 10 13 10 4 3 5 4 7 6 6 7 7 7 6 7 5 3 6 6 6 6 4 6 8 9 10 10 10 9 10 11 12 11
5 5 13 7 5 3 10 8 5 1 4 3 9 5 6 3 4 5 5 4 5 5 6 5 6 6 5 3 3 4 8 6 7 8 10 11 11 11 9 9 10 10 10
2 4 11 8 8 8 6 5 4 5 7 6 7 12 6 2 2 2 2 4 3 3 3 2 4 4 5 5 6 7 7 10 5 7 6 7 10 10 9 11 10 10 10
14 2 5 16 14 9 7 9 11 6 4 5 7 3 1 1 1 5 0 2 2 2 1 4 4 6 8 8 8 5 3 3 4 4 9 5 10 10 9 10 10 11 11
16 3 4 10 11 11 14 14 9 6 5 6 5 4 4 3 3 2 1 1 2 4 4 3 4 6 6 6 3 3 3 5 9 8 7 4 3 8 11 9 10 11 12
13 3 7 10 5 6 9 6 5 6 6 7 6 5 5 5 5 4 3 3 4 2 3 2 3 4 2 3 5 6 6 6 6 7 6 2 5 8 8 8 10 11 13
Wind_Direction
67 35 104 77 70 57 62 64 58 67 69 77 106 140 163 173 171 164 156 176 177 175 181 192 204 226 265 272 353 313 279 304 25 119 148 118 121 137 128 146 164 180 179
109 94 143 139 89 69 80 72 82 84 80 74 93 107 118 123 126 140 144 143 143 130 120 112 85 279 274 323 315 328 328 358 100 150 142 160 160 161 171 131 126 154 163
130 144 142 170 192 173 132 100 95 101 98 99 92 100 119 125 127 125 135 129 116 101 84 74 53 45 37 19 4 22 4 280 36 161 161 173 161 150 136 131 138 128 133
147 160 144 167 211 195 167 138 124 131 130 112 107 110 117 123 128 132 141 143 143 119 95 66 32 34 45 23 355 9 11 344 20 353 178 156 144 155 153 154 149 149 131
158 177 156 141 182 131 110 104 126 137 138 140 122 113 120 120 128 133 136 143 151 147 128 124 124 47 30 25 360 330 328 333 334 296 236 203 182 181 174 160 191 160 135
198 207 165 131 125 113 116 118 116 122 122 133 134 126 118 117 134 135 143 136 129 127 131 131 127 137 108 26 32 334 346 304 266 229 189 126 70 80 90 61 79 122 118
177 198 150 153 152 147 154 136 105 91 97 95 97 104 100 126 148 144 134 136 134 137 138 132 108 103 107 105 91 78 81 75 78 107 97 92 80 69 87 77 65 45 87
195 214 161 162 168 182 155 111 97 91 87 82 77 75 88 100 129 131 132 110 102 103 107 104 119 95 90 116 101 87 77 65 62 80 86 83 76 72 74 67 57 16 318
256 215 171 157 102 100 95 94 101 96 90 84 80 76 80 78 112 115 116 108 99 91 88 94 97 85 95 103 87 82 72 70 64 64 64 62 52 41 29 50 34 23 359
96 122 122 119 115 106 103 100 101 93 88 85 77 77 87 78 84 108 106 101 98 89 89 86 80 83 92 101 108 100 85 76 66 48 40 40 36 27 25 31 18 1 0
118 114 118 114 111 111 112 109 109 105 100 91 82 77 74 77 76 89 117 112 103 95 86 81 75 79 80 80 82 79 74 51 26 22 49 28 22 4 58 51 7 1 354
108 104 106 111 114 115 114 110 108 106 100 95 94 84 80 76 78 76 81 84 100 102 93 87 84 78 75 86 85 81 76 48 0 305 292 323 64 26 1 352 351 1 347
95 92 95 97 99 106 105 103 104 107 105 100 90 87 87 86 81 83 89 95 95 94 92 91 79 73 76 74 78 66 48 46 41 43 37 31 25 9 344 336 338 304 299
94 95 94 95 93 92 92 96 102 104 102 104 101 99 100 95 92 92 89 90 92 90 91 90 83 83 91 77 70 61 49 40 46 28 22 18 16 3 348 352 350 339 326
97 96 94 93 93 91 88 90 97 94 97 99 97 99 102 95 89 91 103 110 118 127 133 102 94 84 82 91 83 73 49 44 32 24 16 6 2 4 12 347 334 334 341
104 103 103 101 98 94 91 88 86 89 92 93 92 94 96 95 93 100 113 115 113 95 109 100 80 72 59 46 41 45 67 38 351 15 18 14 356 342 340 328 318 339 322
116 117 114 112 113 112 108 106 101 90 91 89 88 93 94 99 104 108 104 97 99 85 97 91 84 75 80 74 50 36 29 19 332 7 10 356 355 348 342 329 343 331 9
119 123 124 137 147 130 136 141 139 126 112 100 89 88 98 109 107 97 87 86 299 101 89 63 56 30 19 33 33 31 19 353 19 8 334 357 354 350 328 335 333 4 2
152 157 154 148 141 129 141 138 124 135 141 142 133 115 112 116 114 95 25 338 19 66 56 100 87 39 31 21 9 1 331 20 358 327 357 6 347 338 332 332 327 301 264
86 82 96 116 148 139 143 115 113 124 134 161 160 164 164 195 233 255 151 45 35 32 32 26 43 103 41 52 11 355 333 338 91 17 10 350 349 337 338 337 329 328 321
119 134 3 230 130 89 49 43 61 37 31 84 82 50 215 259 99 76 40 44 41 25 31 29 345 19 46 87 47 334 335 355 51 26 0 348 345 339 341 345 336 331 336
140 172 175 155 89 83 96 91 81 18 272 102 112 76 147 268 69 63 55 37 36 32 40 16 347 357 360 58 359 350 323 356 60 35 357 347 340 334 4 340 320 331 331
268 195 150 141 143 156 139 135 163 236 215 168 168 164 191 152 32 66 33 56 32 36 26 356 334 349 356 14 337 314 342 7 72 34 357 341 325 339 344 332 335 335 350
296 188 291 162 165 194 164 182 204 227 354 159 172 175 210 114 307 108 123 38 13 324 261 6 355 17 3 338 330 351 91 79 26 337 332 348 327 345 339 320 335 355 335
306 187 274 155 172 206 191 222 197 166 189 229 225 192 232 202 246 247 161 253 269 277 47 2 43 8 351 347 334 331 354 340 336 339 337 319 314 311 319 354 352 329 318
304 277 259 275 243 209 202 209 183 186 230 209 222 229 237 243 233 206 227 215 269 2 105 26 44 45 121 59 337 319 324 340 347 347 353 71 338 334 342 336 326 322 317